| time (UTC) | temp F | wind direction | speed MPH | gust MPH | rain 1hr in | rain 24hr in | rain mn in | humidity % | barometer mb |
| 20260506215712 | 53 | 230 | 2.0 | 5.0 | 0.00 | 0.08 | 0.08 | 89 | 1014.5 |
| 20260506215207 | 53 | 220 | 2.0 | 4.0 | 0.00 | 0.08 | 0.08 | 88 | 1014.5 |
| 20260506214707 | 53 | 202 | 2.0 | 4.0 | 0.00 | 0.08 | 0.08 | 88 | 1014.4 |
| 20260506213712 | 54 | 182 | 2.0 | 3.0 | 0.00 | 0.08 | 0.08 | 88 | 1014.4 |
| 20260506213219 | 54 | 215 | 2.0 | 5.0 | 0.00 | 0.08 | 0.08 | 88 | 1014.4 |
| 20260506212710 | 54 | 229 | 2.0 | 5.0 | 0.00 | 0.08 | 0.08 | 89 | 1014.4 |
| 20260506212215 | 54 | 215 | 2.0 | 5.0 | 0.00 | 0.08 | 0.08 | 89 | 1014.4 |
| 20260506211714 | 54 | 209 | 2.0 | 4.0 | 0.00 | 0.08 | 0.08 | 89 | 1014.3 |
| 20260506211210 | 54 | 0 | 0.0 | 2.0 | 0.00 | 0.08 | 0.08 | 89 | 1014.3 |
| 20260506210716 | 54 | 203 | 0.0 | 2.0 | 0.00 | 0.08 | 0.08 | 90 | 1014.4 |
| 20260506210216 | 54 | 217 | 1.0 | 2.0 | 0.00 | 0.08 | 0.08 | 90 | 1014.4 |
| 20260506205217 | 54 | 198 | 2.0 | 3.0 | 0.00 | 0.08 | 0.08 | 91 | 1014.3 |
| 20260506204709 | 54 | 206 | 1.0 | 4.0 | 0.00 | 0.08 | 0.08 | 91 | 1014.3 |
| 20260506204218 | 54 | 232 | 1.0 | 4.0 | 0.00 | 0.08 | 0.08 | 91 | 1014.2 |
| 20260506203706 | 54 | 233 | 2.0 | 4.0 | 0.00 | 0.08 | 0.08 | 91 | 1014.3 |
| 20260506203205 | 54 | 240 | 2.0 | 4.0 | 0.00 | 0.08 | 0.08 | 90 | 1014.2 |
| 20260506202708 | 54 | 234 | 3.0 | 3.0 | 0.00 | 0.08 | 0.08 | 90 | 1014.2 |
| 20260506201708 | 54 | 212 | 0.0 | 3.0 | 0.00 | 0.08 | 0.08 | 91 | 1014.0 |
| 20260506201211 | 54 | 215 | 1.0 | 2.0 | 0.00 | 0.08 | 0.08 | 91 | 1014.0 |
| 20260506200734 | 54 | 198 | 1.0 | 2.0 | 0.00 | 0.08 | 0.08 | 91 | 1014.0 |
| 20260506200218 | 54 | 279 | 0.0 | 3.0 | 0.00 | 0.08 | 0.08 | 91 | 1014.0 |
| 20260506195718 | 54 | 198 | 0.0 | 3.0 | 0.00 | 0.08 | 0.08 | 91 | 1013.9 |
| 20260506194733 | 55 | 0 | 0.0 | 3.0 | 0.00 | 0.08 | 0.08 | 91 | 1013.7 |
| 20260506194219 | 55 | 222 | 2.0 | 5.0 | 0.00 | 0.08 | 0.08 | 91 | 1013.7 |
| 20260506193706 | 55 | 172 | 1.0 | 5.0 | 0.00 | 0.08 | 0.08 | 90 | 1013.6 |
| 20260506192708 | 55 | 163 | 2.0 | 4.0 | 0.00 | 0.08 | 0.08 | 90 | 1013.4 |
| 20260506192217 | 55 | 161 | 2.0 | 2.0 | 0.00 | 0.08 | 0.08 | 90 | 1013.4 |
| 20260506191723 | 55 | 140 | 0.0 | 2.0 | 0.00 | 0.08 | 0.08 | 90 | 1013.4 |
| 20260506191214 | 56 | 132 | 0.0 | 3.0 | 0.00 | 0.08 | 0.08 | 90 | 1013.3 |
| 20260506190713 | 56 | 195 | 0.0 | 6.0 | 0.01 | 0.08 | 0.08 | 90 | 1013.3 |
| 20260506185718 | 56 | 264 | 3.0 | 4.0 | 0.01 | 0.08 | 0.08 | 90 | 1013.2 |
| 20260506185210 | 56 | 210 | 1.0 | 4.0 | 0.02 | 0.08 | 0.08 | 90 | 1013.2 |
| 20260506184713 | 56 | 232 | 2.0 | 4.0 | 0.05 | 0.08 | 0.08 | 90 | 1013.1 |
| 20260506183717 | 56 | 7 | 1.0 | 5.0 | 0.07 | 0.08 | 0.08 | 89 | 1013.1 |
| 20260506182712 | 56 | 240 | 2.0 | 8.0 | 0.07 | 0.08 | 0.08 | 88 | 1013.0 |
| 20260506182219 | 55 | 246 | 3.0 | 8.0 | 0.07 | 0.08 | 0.08 | 88 | 1013.0 |
| 20260506181713 | 55 | 237 | 3.0 | 8.0 | 0.07 | 0.08 | 0.08 | 88 | 1012.8 |
| 20260506181231 | 55 | 236 | 1.0 | 8.0 | 0.08 | 0.08 | 0.08 | 88 | 1012.7 |
| 20260506180710 | 55 | 0 | 0.0 | 8.0 | 0.07 | 0.07 | 0.07 | 88 | 1012.6 |
| 20260506175709 | 55 | 185 | 2.0 | 5.0 | 0.07 | 0.07 | 0.07 | 88 | 1012.5 |
| 20260506174207 | 56 | 181 | 6.0 | 15.0 | 0.01 | 0.01 | 0.01 | 85 | 1012.5 |
| 20260506173713 | 56 | 182 | 6.0 | 15.0 | 0.01 | 0.01 | 0.01 | 84 | 1012.3 |
| 20260506173207 | 56 | 205 | 8.0 | 15.0 | 0.01 | 0.01 | 0.01 | 83 | 1012.3 |
| 20260506172714 | 56 | 229 | 5.0 | 14.0 | 0.01 | 0.01 | 0.01 | 82 | 1012.2 |
| 20260506172212 | 56 | 158 | 6.0 | 18.0 | 0.01 | 0.01 | 0.01 | 81 | 1012.3 |
| 20260506171714 | 56 | 188 | 7.0 | 19.0 | 0.00 | 0.00 | 0.00 | 80 | 1012.3 |
| 20260506171215 | 57 | 208 | 7.0 | 19.0 | 0.00 | 0.00 | 0.00 | 79 | 1011.7 |
| 20260506170212 | 59 | 227 | 7.0 | 14.0 | 0.00 | 0.00 | 0.00 | 71 | 1012.1 |
| 20260506165705 | 61 | 227 | 4.0 | 14.0 | 0.00 | 0.00 | 0.00 | 68 | 1011.9 |
| 20260506165209 | 62 | 37 | 4.0 | 10.0 | 0.00 | 0.00 | 0.00 | 62 | 1011.5 |
| 20260506164707 | 62 | 0 | 0.0 | 2.0 | 0.00 | 0.01 | 0.00 | 64 | 1011.3 |
| 20260506164206 | 63 | 338 | 2.0 | 10.0 | 0.00 | 0.02 | 0.00 | 65 | 1011.3 |
| 20260506163705 | 63 | 299 | 2.0 | 19.0 | 0.00 | 0.03 | 0.00 | 65 | 1011.2 |
| 20260506163219 | 63 | 296 | 2.0 | 19.0 | 0.00 | 0.04 | 0.00 | 63 | 1011.1 |
| 20260506162710 | 63 | 275 | 3.0 | 19.0 | 0.00 | 0.05 | 0.00 | 62 | 1011.0 |
| 20260506162228 | 63 | 261 | 4.0 | 14.0 | 0.00 | 0.06 | 0.00 | 62 | 1011.0 |
| 20260506161715 | 63 | 316 | 4.0 | 14.0 | 0.00 | 0.08 | 0.00 | 60 | 1011.0 |
| 20260506161209 | 64 | 9 | 2.0 | 12.0 | 0.00 | 0.09 | 0.00 | 62 | 1011.0 |
| 20260506160715 | 64 | 222 | 2.0 | 12.0 | 0.00 | 0.09 | 0.00 | 61 | 1010.8 |
| 20260506155213 | 64 | 255 | 1.0 | 11.0 | 0.00 | 0.38 | 0.00 | 61 | 1010.8 |
| 20260506154707 | 65 | 348 | 2.0 | 13.0 | 0.00 | 0.38 | 0.00 | 62 | 1010.8 |
| 20260506153719 | 64 | 300 | 5.0 | 11.0 | 0.00 | 0.38 | 0.00 | 62 | 1010.7 |
| 20260506152719 | 65 | 8 | 3.0 | 14.0 | 0.00 | 0.38 | 0.00 | 59 | 1010.7 |
| 20260506152217 | 65 | 15 | 4.0 | 14.0 | 0.00 | 0.38 | 0.00 | 60 | 1010.6 |
| 20260506151712 | 65 | 355 | 4.0 | 14.0 | 0.00 | 0.38 | 0.00 | 58 | 1010.6 |
| 20260506150710 | 65 | 345 | 6.0 | 17.0 | 0.00 | 0.38 | 0.00 | 58 | 1010.5 |
| 20260506150208 | 65 | 348 | 3.0 | 17.0 | 0.00 | 0.38 | 0.00 | 58 | 1010.5 |
| 20260506145715 | 65 | 286 | 5.0 | 11.0 | 0.00 | 0.38 | 0.00 | 57 | 1010.5 |
| 20260506145219 | 66 | 334 | 4.0 | 11.0 | 0.00 | 0.38 | 0.00 | 56 | 1010.5 |
| 20260506142217 | 68 | 315 | 5.0 | 13.0 | 0.00 | 0.38 | 0.00 | 50 | 1010.7 |
| 20260506141713 | 67 | 338 | 4.0 | 13.0 | 0.00 | 0.38 | 0.00 | 48 | 1010.6 |
| 20260506141215 | 67 | 277 | 4.0 | 11.0 | 0.00 | 0.38 | 0.00 | 51 | 1010.8 |
| 20260506140213 | 67 | 25 | 4.0 | 15.0 | 0.00 | 0.38 | 0.00 | 52 | 1010.8 |
| 20260506135713 | 66 | 12 | 6.0 | 15.0 | 0.00 | 0.38 | 0.00 | 55 | 1010.9 |
| 20260506135215 | 66 | 298 | 5.0 | 15.0 | 0.00 | 0.38 | 0.00 | 53 | 1010.8 |
| 20260506134206 | 67 | 313 | 5.0 | 18.0 | 0.00 | 0.38 | 0.00 | 51 | 1011.0 |
| 20260506133712 | 67 | 272 | 4.0 | 18.0 | 0.00 | 0.38 | 0.00 | 54 | 1011.0 |
| 20260506133209 | 67 | 324 | 5.0 | 11.0 | 0.00 | 0.38 | 0.00 | 52 | 1011.2 |
| 20260506132708 | 67 | 274 | 0.0 | 16.0 | 0.00 | 0.38 | 0.00 | 53 | 1011.1 |
| 20260506132213 | 67 | 264 | 3.0 | 16.0 | 0.00 | 0.38 | 0.00 | 52 | 1011.2 |
| 20260506131714 | 66 | 267 | 5.0 | 16.0 | 0.00 | 0.38 | 0.00 | 53 | 1011.1 |
| 20260506130717 | 66 | 268 | 2.0 | 15.0 | 0.00 | 0.38 | 0.00 | 55 | 1011.4 |
| 20260506130210 | 66 | 8 | 4.0 | 15.0 | 0.00 | 0.38 | 0.00 | 57 | 1011.3 |
| 20260506125718 | 65 | 344 | 6.0 | 13.0 | 0.00 | 0.38 | 0.00 | 59 | 1011.3 |
| 20260506125213 | 65 | 295 | 6.0 | 13.0 | 0.00 | 0.38 | 0.00 | 57 | 1011.3 |
| 20260506124215 | 66 | 25 | 2.0 | 15.0 | 0.00 | 0.38 | 0.00 | 55 | 1011.2 |
| 20260506123714 | 66 | 255 | 5.0 | 15.0 | 0.00 | 0.38 | 0.00 | 56 | 1011.2 |
| 20260506122710 | 65 | 355 | 6.0 | 16.0 | 0.00 | 0.38 | 0.00 | 60 | 1011.4 |
| 20260506121709 | 64 | 4 | 5.0 | 8.0 | 0.00 | 0.38 | 0.00 | 58 | 1011.4 |
| 20260506121216 | 64 | 278 | 2.0 | 11.0 | 0.00 | 0.38 | 0.00 | 57 | 1011.5 |
| 20260506120718 | 65 | 42 | 2.0 | 11.0 | 0.00 | 0.38 | 0.00 | 57 | 1011.4 |
| 20260506120210 | 65 | 341 | 4.0 | 13.0 | 0.00 | 0.38 | 0.00 | 57 | 1011.6 |
| 20260506115709 | 64 | 300 | 3.0 | 13.0 | 0.00 | 0.38 | 0.00 | 57 | 1011.6 |
| 20260506115211 | 64 | 336 | 4.0 | 13.0 | 0.00 | 0.38 | 0.00 | 60 | 1011.6 |
| 20260506114719 | 64 | 244 | 4.0 | 13.0 | 0.00 | 0.38 | 0.00 | 58 | 1011.7 |
| 20260506114209 | 64 | 315 | 2.0 | 16.0 | 0.00 | 0.38 | 0.00 | 57 | 1012.0 |
| 20260506113706 | 64 | 278 | 5.0 | 16.0 | 0.00 | 0.38 | 0.00 | 61 | 1012.0 |
| 20260506113210 | 64 | 265 | 4.0 | 13.0 | 0.00 | 0.38 | 0.00 | 57 | 1012.0 |
| 20260506112716 | 64 | 278 | 3.0 | 14.0 | 0.00 | 0.38 | 0.00 | 57 | 1012.0 |
| 20260506111707 | 63 | 275 | 4.0 | 12.0 | 0.00 | 0.38 | 0.00 | 59 | 1012.1 |
| 20260506111205 | 63 | 278 | 5.0 | 12.0 | 0.00 | 0.38 | 0.00 | 61 | 1012.2 |
| 20260506110218 | 63 | 251 | 2.0 | 14.0 | 0.00 | 0.38 | 0.00 | 60 | 1012.2 |
| 20260506105719 | 62 | 251 | 2.0 | 14.0 | 0.00 | 0.38 | 0.00 | 61 | 1012.2 |
| 20260506104712 | 62 | 288 | 1.0 | 13.0 | 0.00 | 0.38 | 0.00 | 61 | 1012.2 |
| 20260506104209 | 62 | 331 | 2.0 | 11.0 | 0.00 | 0.38 | 0.00 | 63 | 1012.3 |
| 20260506103217 | 62 | 0 | 0.0 | 6.0 | 0.00 | 0.38 | 0.00 | 62 | 1012.4 |
| 20260506102211 | 61 | 284 | 0.0 | 10.0 | 0.00 | 0.38 | 0.00 | 65 | 1012.4 |
| 20260506101719 | 61 | 248 | 1.0 | 10.0 | 0.00 | 0.38 | 0.00 | 63 | 1012.4 |
| 20260506101216 | 61 | 344 | 2.0 | 10.0 | 0.00 | 0.38 | 0.00 | 62 | 1012.4 |
| 20260506100236 | 61 | 271 | 1.0 | 7.0 | 0.00 | 0.38 | 0.00 | 62 | 1012.4 |
| 20260506095217 | 61 | 255 | 1.0 | 7.0 | 0.00 | 0.38 | 0.00 | 64 | 1012.5 |
| 20260506094705 | 61 | 271 | 0.0 | 7.0 | 0.00 | 0.38 | 0.00 | 62 | 1012.5 |
| 20260506094218 | 60 | 302 | 1.0 | 7.0 | 0.00 | 0.38 | 0.00 | 63 | 1012.5 |
| 20260506093711 | 60 | 291 | 1.0 | 11.0 | 0.00 | 0.38 | 0.00 | 65 | 1012.5 |
| 20260506092706 | 59 | 250 | 2.0 | 8.0 | 0.00 | 0.38 | 0.00 | 67 | 1012.5 |
| 20260506091707 | 59 | 279 | 1.0 | 9.0 | 0.00 | 0.38 | 0.00 | 66 | 1012.6 |
| 20260506091219 | 59 | 253 | 1.0 | 9.0 | 0.00 | 0.38 | 0.00 | 68 | 1012.5 |
| 20260506090207 | 59 | 285 | 3.0 | 10.0 | 0.00 | 0.38 | 0.00 | 68 | 1012.5 |
| 20260506085705 | 59 | 264 | 2.0 | 10.0 | 0.00 | 0.38 | 0.00 | 67 | 1012.5 |
| 20260506085207 | 59 | 275 | 3.0 | 11.0 | 0.00 | 0.38 | 0.00 | 68 | 1012.4 |
| 20260506084713 | 59 | 307 | 1.0 | 11.0 | 0.00 | 0.38 | 0.00 | 69 | 1012.6 |
| 20260506083708 | 59 | 286 | 1.0 | 10.0 | 0.00 | 0.38 | 0.00 | 68 | 1012.4 |
| 20260506082718 | 59 | 279 | 1.0 | 2.0 | 0.00 | 0.38 | 0.00 | 70 | 1012.5 |
| 20260506082208 | 58 | 244 | 0.0 | 9.0 | 0.00 | 0.38 | 0.00 | 70 | 1012.5 |
| 20260506081709 | 58 | 0 | 0.0 | 10.0 | 0.00 | 0.38 | 0.00 | 72 | 1012.5 |
| 20260506081217 | 58 | 261 | 2.0 | 10.0 | 0.00 | 0.38 | 0.00 | 73 | 1012.6 |
| 20260506080724 | 57 | 271 | 1.0 | 10.0 | 0.00 | 0.38 | 0.00 | 74 | 1012.6 |
| 20260506080217 | 56 | 0 | 0.0 | 0.0 | 0.00 | 0.38 | 0.00 | 72 | 1012.7 |
| 20260506072717 | 55 | 0 | 0.0 | 0.0 | 0.00 | 0.38 | 0.00 | 78 | 1012.6 |
| 20260506072208 | 55 | 0 | 0.0 | 0.0 | 0.00 | 0.38 | 0.00 | 79 | 1012.7 |
| 20260506071714 | 55 | 0 | 0.0 | 0.0 | 0.00 | 0.38 | 0.00 | 79 | 1012.7 |
| 20260506071210 | 54 | 0 | 0.0 | 0.0 | 0.00 | 0.38 | 0.00 | 81 | 1012.7 |
| 20260506070707 | 54 | 0 | 0.0 | 0.0 | 0.00 | 0.38 | 0.00 | 83 | 1012.7 |
| 20260506062219 | 52 | 137 | 0.0 | 3.0 | 0.00 | 0.38 | 0.00 | 87 | 1012.5 |
| 20260506061706 | 52 | 0 | 0.0 | 3.0 | 0.00 | 0.38 | 0.00 | 88 | 1012.6 |
| 20260506061241 | 52 | 111 | 1.0 | 1.0 | 0.00 | 0.38 | 0.00 | 89 | 1012.5 |
| 20260506060209 | 52 | 0 | 0.0 | 3.0 | 0.00 | 0.38 | 0.00 | 91 | 1012.5 |
| 20260506051205 | 50 | 0 | 0.0 | 0.0 | 0.00 | 0.38 | 0.00 | 93 | 1012.2 |
| 20260506050718 | 50 | 0 | 0.0 | 0.0 | 0.00 | 0.38 | 0.00 | 93 | 1012.1 |
| 20260506050205 | 50 | 0 | 0.0 | 0.0 | 0.00 | 0.38 | 0.00 | 93 | 1012.0 |
| 20260506044713 | 50 | 0 | 0.0 | 2.0 | 0.00 | 0.38 | 0.00 | 92 | 1012.0 |
| 20260506044217 | 50 | 0 | 0.0 | 4.0 | 0.00 | 0.38 | 0.00 | 92 | 1011.9 |
| 20260506043713 | 50 | 271 | 0.0 | 4.0 | 0.00 | 0.38 | 0.00 | 92 | 1011.7 |
| 20260506043207 | 50 | 268 | 2.0 | 4.0 | 0.00 | 0.38 | 0.00 | 91 | 1011.9 |
| 20260506042217 | 50 | 240 | 1.0 | 4.0 | 0.00 | 0.38 | 0.00 | 91 | 1011.6 |
| 20260506041705 | 50 | 251 | 1.0 | 4.0 | 0.00 | 0.38 | 0.00 | 91 | 1011.6 |
| 20260506041216 | 50 | 243 | 0.0 | 2.0 | 0.00 | 0.38 | 0.00 | 91 | 1011.6 |
| 20260506040705 | 50 | 0 | 0.0 | 2.0 | 0.00 | 0.38 | 0.00 | 92 | 1011.6 |
| 20260506040207 | 50 | 286 | 0.0 | 1.0 | 0.00 | 0.38 | 0.00 | 92 | 1011.5 |
| 20260506035718 | 51 | 275 | 0.0 | 1.0 | 0.00 | 0.38 | 0.00 | 92 | 1011.5 |
| 20260506035208 | 51 | 265 | 0.0 | 0.0 | 0.00 | 0.38 | 0.00 | 92 | 1011.6 |
| 20260506034705 | 51 | 0 | 0.0 | 0.0 | 0.00 | 0.38 | 0.00 | 92 | 1011.6 |
| 20260506034215 | 51 | 0 | 0.0 | 1.0 | 0.00 | 0.38 | 0.00 | 92 | 1011.6 |
| 20260506033210 | 51 | 268 | 0.0 | 1.0 | 0.00 | 0.38 | 0.00 | 92 | 1011.7 |
| 20260506032708 | 51 | 0 | 0.0 | 6.0 | 0.00 | 0.38 | 0.00 | 92 | 1011.7 |
| 20260506032215 | 51 | 0 | 0.0 | 7.0 | 0.00 | 0.38 | 0.00 | 92 | 1011.7 |
| 20260506031715 | 51 | 74 | 2.0 | 7.0 | 0.00 | 0.38 | 0.00 | 92 | 1011.7 |
| 20260506031217 | 51 | 97 | 1.0 | 7.0 | 0.00 | 0.38 | 0.00 | 92 | 1011.7 |
| 20260506030707 | 51 | 324 | 0.0 | 0.0 | 0.00 | 0.38 | 0.00 | 92 | 1011.7 |
| 20260506030215 | 51 | 0 | 0.0 | 0.0 | 0.00 | 0.38 | 0.00 | 92 | 1011.6 |
| 20260506025723 | 51 | 0 | 0.0 | 0.0 | 0.00 | 0.38 | 0.00 | 92 | 1011.6 |
| 20260506025205 | 51 | 0 | 0.0 | 4.0 | 0.00 | 0.39 | 0.00 | 92 | 1011.6 |
| 20260506024716 | 51 | 0 | 0.0 | 4.0 | 0.00 | 0.39 | 0.00 | 92 | 1011.7 |
| 20260506024208 | 51 | 230 | 1.0 | 2.0 | 0.00 | 0.39 | 0.00 | 92 | 1011.7 |
| 20260506023715 | 51 | 239 | 0.0 | 2.0 | 0.00 | 0.39 | 0.00 | 91 | 1011.7 |
| 20260506023204 | 51 | 0 | 0.0 | 2.0 | 0.00 | 0.39 | 0.00 | 92 | 1011.7 |
| 20260506021715 | 51 | 0 | 0.0 | 0.0 | 0.00 | 0.39 | 0.00 | 92 | 1011.7 |
| 20260506021218 | 51 | 0 | 0.0 | 3.0 | 0.00 | 0.39 | 0.00 | 92 | 1011.6 |
| 20260506020715 | 51 | 0 | 0.0 | 3.0 | 0.00 | 0.39 | 0.00 | 92 | 1011.6 |
| 20260506020216 | 51 | 230 | 0.0 | 3.0 | 0.00 | 0.39 | 0.00 | 92 | 1011.6 |
| 20260506015718 | 51 | 0 | 0.0 | 0.0 | 0.00 | 0.39 | 0.00 | 92 | 1011.6 |
| 20260506014716 | 51 | 0 | 0.0 | 1.0 | 0.00 | 0.39 | 0.00 | 92 | 1011.7 |
| 20260506014205 | 51 | 257 | 0.0 | 2.0 | 0.00 | 0.39 | 0.00 | 91 | 1011.6 |
| 20260506013710 | 51 | 0 | 0.0 | 2.0 | 0.00 | 0.39 | 0.00 | 91 | 1011.7 |
| 20260506012708 | 51 | 0 | 0.0 | 0.0 | 0.00 | 0.39 | 0.00 | 90 | 1011.5 |
| 20260506012214 | 51 | 0 | 0.0 | 0.0 | 0.00 | 0.39 | 0.00 | 90 | 1011.5 |
| 20260506011719 | 52 | 0 | 0.0 | 4.0 | 0.00 | 0.39 | 0.00 | 89 | 1011.6 |
| 20260506011212 | 52 | 0 | 0.0 | 4.0 | 0.00 | 0.39 | 0.00 | 89 | 1011.5 |
| 20260506010712 | 52 | 194 | 1.0 | 5.0 | 0.00 | 0.39 | 0.00 | 89 | 1011.6 |
| 20260506010205 | 52 | 209 | 2.0 | 5.0 | 0.00 | 0.39 | 0.00 | 89 | 1011.6 |
| 20260506004218 | 52 | 219 | 3.0 | 5.0 | 0.00 | 0.39 | 0.00 | 89 | 1011.7 |
| 20260506003212 | 52 | 254 | 3.0 | 12.0 | 0.00 | 0.39 | 0.00 | 89 | 1011.7 |
| 20260506002706 | 52 | 212 | 3.0 | 13.0 | 0.00 | 0.39 | 0.00 | 89 | 1012.0 |
| 20260506002209 | 52 | 267 | 4.0 | 15.0 | 0.00 | 0.39 | 0.00 | 89 | 1012.0 |
| 20260506001732 | 52 | 250 | 6.0 | 15.0 | 0.00 | 0.39 | 0.00 | 88 | 1012.1 |
| 20260506001210 | 52 | 251 | 7.0 | 15.0 | 0.00 | 0.39 | 0.00 | 88 | 1012.1 |
| 20260506000705 | 52 | 0 | 0.0 | 0.0 | 0.00 | 0.39 | 0.00 | 89 | 1012.0 |
| 20260506000208 | 52 | 0 | 0.0 | 0.0 | 0.00 | 0.39 | 0.00 | 90 | 1012.0 |
| 20260505235715 | 51 | 0 | 0.0 | 0.0 | 0.00 | 0.39 | 0.00 | 91 | 1012.0 |
| 20260505234728 | 50 | 0 | 0.0 | 0.0 | 0.00 | 0.39 | 0.00 | 94 | 1012.2 |
| 20260505234205 | 49 | 0 | 0.0 | 0.0 | 0.00 | 0.39 | 0.00 | 94 | 1012.3 |
| 20260505233709 | 49 | 0 | 0.0 | 0.0 | 0.00 | 0.39 | 0.00 | 94 | 1012.2 |
| 20260505233209 | 49 | 0 | 0.0 | 0.0 | 0.00 | 0.39 | 0.00 | 94 | 1012.3 |
| 20260505232719 | 49 | 0 | 0.0 | 0.0 | 0.00 | 0.39 | 0.00 | 94 | 1012.3 |
| 20260505232215 | 49 | 0 | 0.0 | 0.0 | 0.00 | 0.39 | 0.00 | 94 | 1012.3 |
| 20260505231707 | 49 | 0 | 0.0 | 0.0 | 0.00 | 0.39 | 0.00 | 94 | 1012.4 |
| 20260505231210 | 49 | 0 | 0.0 | 0.0 | 0.00 | 0.39 | 0.00 | 94 | 1012.3 |
| 20260505230206 | 50 | 0 | 0.0 | 0.0 | 0.00 | 0.39 | 0.00 | 93 | 1012.2 |
| 20260505225715 | 50 | 0 | 0.0 | 0.0 | 0.00 | 0.39 | 0.00 | 93 | 1012.3 |
| 20260505223709 | 51 | 0 | 0.0 | 0.0 | 0.00 | 0.39 | 0.00 | 93 | 1012.5 |
| 20260505223215 | 51 | 0 | 0.0 | 0.0 | 0.00 | 0.39 | 0.00 | 93 | 1012.4 |
| 20260505222719 | 51 | 0 | 0.0 | 0.0 | 0.00 | 0.39 | 0.00 | 93 | 1012.5 |
| 20260505222213 | 51 | 0 | 0.0 | 0.0 | 0.00 | 0.39 | 0.00 | 92 | 1012.5 |
| 20260505221714 | 51 | 0 | 0.0 | 0.0 | 0.00 | 0.39 | 0.00 | 93 | 1012.6 |
| 20260505221206 | 51 | 0 | 0.0 | 0.0 | 0.00 | 0.39 | 0.00 | 92 | 1012.7 |
| 20260505220217 | 52 | 0 | 0.0 | 0.0 | 0.00 | 0.39 | 0.39 | 92 | 1012.8 |